Weather History for Hatteras, NC

Change the Weather History Date:

Tuesday, February 25, 2014

  Actual Average Record
Temperature  
Mean Temperature 50 °F 48 °F  
Max Temperature 58 °F 55 °F 73 °F (1930)
Min Temperature 42 °F 41 °F 19 °F (1967)
Degree Days  
Heating Degree Days 15 17  
Month to date heating degree days 421 460  
Since 1 July heating degree days 1766 1873  
Cooling Degree Days 0 0  
Month to date cooling degree days 0 0  
Year to date cooling degree days 0 0  
Moisture  
Dew Point 39 °F    
Average Humidity 70    
Maximum Humidity 83    
Minimum Humidity 57    
Precipitation  
Precipitation 0.00 in 0.15 in 1.83 in (1960)
Month to date precipitation 4.62 3.60  
Year to date precipitation 9.96 8.84  
Snow  
Snow 0.00 in - - ()
Month to date snowfall 5.5  
Since 1 July snowfall 5.7  
Snow Depth 0.00 in    
Sea Level Pressure  
Sea Level Pressure 30.01 in    
Wind  
Wind Speed 9 mph (NE)    
Max Wind Speed 17 mph    
Max Gust Speed 29 mph    
Visibility 10 miles    
Events      
T = Trace of Precipitation, MM = Missing Value Source: NWS Daily Summary

Daily Weather History Graph

Daily Weather History Graph

Search for Another Location

Airport:

Trip Planner

Search our weather history database for the weather conditions in past years. The results will help you decide how hot, cold, wet, or windy it might be!

Date:

Astronomy

Feb. 25, 2014 Rise Set
Actual Time 6:37 AM EST 5:54 PM EST
Civil Twilight 6:11 AM EST 6:19 PM EST
Nautical Twilight 5:42 AM EST 6:49 PM EST
Astronomical Twilight 5:12 AM EST 7:18 PM EST
Moon 3:23 AM EST (2/25) 2:03 PM EST (2/25)
Length of Visible Light 12h 08m
Length of Day
11h 17m
Waning Crescent, 18% of the Moon is Illuminated
Feb 25
Waning Crescent
Mar 1
New
Mar 8
First Quarter
Mar 16
Full
Mar 23
Last Quarter

Hourly Weather History & Observations

Time (EST) Temp. Windchill Dew Point Humidity Pressure Visibility Wind Dir Wind Speed Gust Speed Precip Events Conditions
12:51 AM 45.0 °F 41.8 °F 39.9 °F 82% 30.11 in 10.0 mi NE 5.8 mph - N/A   Clear
1:51 AM 44.1 °F 40.8 °F 37.9 °F 79% 30.12 in 10.0 mi NE 5.8 mph - N/A   Clear
2:51 AM 44.1 °F 41.5 °F 37.9 °F 79% 30.10 in 10.0 mi ENE 4.6 mph - N/A   Clear
3:51 AM 43.0 °F 39.5 °F 37.0 °F 80% 30.09 in 10.0 mi NE 5.8 mph - N/A   Clear
4:51 AM 43.0 °F 39.5 °F 37.0 °F 80% 30.08 in 10.0 mi NE 5.8 mph - N/A   Clear
5:51 AM 44.1 °F 40.1 °F 39.0 °F 82% 30.07 in 10.0 mi NE 6.9 mph - N/A   Clear
6:51 AM 44.1 °F 40.1 °F 39.9 °F 85% 30.07 in 10.0 mi NNE 6.9 mph - N/A   Clear
7:51 AM 48.0 °F - 39.9 °F 74% 30.07 in 10.0 mi NNE 6.9 mph - N/A   Clear
8:51 AM 51.1 °F - 42.1 °F 71% 30.06 in 10.0 mi NNE 6.9 mph - N/A   Clear
9:51 AM 53.1 °F - 42.1 °F 66% 30.05 in 10.0 mi NNE 8.1 mph - N/A   Partly Cloudy
10:51 AM 55.9 °F - 41.0 °F 57% 30.02 in 10.0 mi ENE 5.8 mph - N/A   Clear
11:51 AM 57.0 °F - 43.0 °F 59% 29.98 in 10.0 mi Variable 4.6 mph - N/A   Clear
12:51 PM 54.0 °F - 43.0 °F 66% 29.95 in 10.0 mi North 8.1 mph - N/A   Clear
1:51 PM 55.0 °F - 42.1 °F 62% 29.92 in 10.0 mi North 10.4 mph - N/A   Clear
2:51 PM 51.1 °F - 42.1 °F 71% 29.91 in 10.0 mi NNE 10.4 mph - N/A   Scattered Clouds
3:51 PM 48.0 °F - 39.9 °F 74% 29.91 in 10.0 mi North 12.7 mph 23.0 mph N/A   Mostly Cloudy
4:51 PM 46.0 °F 39.6 °F 37.9 °F 73% 29.93 in 10.0 mi NNE 15.0 mph 25.3 mph N/A   Clear
5:51 PM 45.0 °F 38.2 °F 39.0 °F 80% 29.95 in 10.0 mi North 15.0 mph 25.3 mph N/A   Mostly Cloudy
6:51 PM 45.0 °F 39.7 °F 37.0 °F 74% 29.97 in 10.0 mi NNE 10.4 mph 21.9 mph N/A   Mostly Cloudy
7:51 PM 45.0 °F 39.7 °F 36.0 °F 71% 29.98 in 10.0 mi NNE 10.4 mph 19.6 mph N/A   Overcast
8:51 PM 43.0 °F 36.8 °F 36.0 °F 76% 29.99 in 10.0 mi NE 11.5 mph 19.6 mph N/A   Clear
9:51 PM 43.0 °F 37.2 °F 32.0 °F 65% 29.99 in 10.0 mi NE 10.4 mph 20.7 mph N/A   Clear
10:51 PM 42.1 °F 36.1 °F 33.1 °F 70% 30.00 in 10.0 mi NE 10.4 mph - N/A   Clear
11:51 PM 43.0 °F 38.2 °F 30.9 °F 62% 30.00 in 10.0 mi NE 8.1 mph - N/A   Clear